Weather History for Madrid / Barajas, Spain

Change the Weather History Date:

Friday, May 3, 2013

  Actual Average Record
Temperature  
Mean Temperature 54 °F -  
Max Temperature 68 °F 72 °F - ()
Min Temperature 40 °F 49 °F - ()
Degree Days  
Heating Degree Days 11    
Growing Degree Days 4 (Base 50)    
Moisture  
Dew Point 39 °F    
Average Humidity 59    
Maximum Humidity 87    
Minimum Humidity 28    
Precipitation  
Precipitation 0.00 in 0.05 in - ()
Sea Level Pressure  
Sea Level Pressure 30.09 in    
Wind  
Wind Speed 5 mph ()    
Max Wind Speed 8 mph    
Max Gust Speed -    
Visibility 7.6 miles    
Events      
T = Trace of Precipitation, MM = Missing Value Source: Averaged Metar Reports

Daily Weather History Graph

Daily Weather History Graph

Search for Another Location

Airport:

Trip Planner

Search our weather history database for the weather conditions in past years. The results will help you decide how hot, cold, wet, or windy it might be!

Date:

Astronomy

May. 03, 2013 Rise Set
Actual Time 7:10 AM CEST 9:11 PM CEST
Civil Twilight 6:41 AM CEST 9:41 PM CEST
Nautical Twilight 6:04 AM CEST 10:18 PM CEST
Astronomical Twilight 5:25 AM CEST 10:57 PM CEST
Moon 3:28 AM CEST (5/3) 2:49 PM CEST (5/3)
Length of Visible Light 15h 00m
Length of Day
14h 01m
Last Quarter, 40% of the Moon is Illuminated
May 3
Last Quarter
May 10
New
May 18
First Quarter
May 25
Full
May 31
Last Quarter

Hourly Weather History & Observations

Time (CEST) Temp. Windchill Dew Point Humidity Pressure Visibility Wind Dir Wind Speed Gust Speed Precip Events Conditions
12:00 AM 50.0 °F - 41.0 °F 71% 30.12 in - NNW 6.9 mph - N/A   Clear
12:30 AM 48.2 °F - 39.2 °F 71% 30.12 in - NW 5.8 mph - N/A   Clear
1:00 AM 48.2 °F - 39.2 °F 71% 30.12 in - NW 5.8 mph - N/A   Clear
1:30 AM 46.4 °F 42.9 °F 39.2 °F 76% 30.12 in - NNW 6.9 mph - N/A   Clear
2:00 AM 46 °F - 38 °F 65% 30.15 in 19 mi North 8.1 mph - -  
2:00 AM 46.4 °F 42.4 °F 39.2 °F 76% 30.12 in - North 8.1 mph - N/A   Clear
2:30 AM 44.6 °F 40.7 °F 39.2 °F 81% 30.12 in - NNW 6.9 mph - N/A   Clear
3:00 AM 46.4 °F 44.3 °F 39.2 °F 76% 30.09 in - North 4.6 mph - N/A   Clear
3:30 AM 44.6 °F - 39.2 °F 81% 30.09 in - North 1.2 mph - N/A   Clear
4:00 AM 44.6 °F - 37.4 °F 76% 30.09 in - Variable 1.2 mph - N/A   Clear
4:30 AM 46.4 °F - 37.4 °F 71% 30.09 in - NNE 2.3 mph - N/A   Clear
5:00 AM 44.6 °F 43.1 °F 37.4 °F 76% 30.09 in - NNW 3.5 mph - N/A   Clear
5:30 AM 44.6 °F 41.4 °F 37.4 °F 76% 30.09 in - North 5.8 mph - N/A   Clear
6:00 AM 44.6 °F 43.1 °F 37.4 °F 76% 30.09 in - North 3.5 mph - N/A   Clear
6:30 AM 42.8 °F 39.3 °F 37.4 °F 81% 30.09 in - NNW 5.8 mph - N/A   Clear
7:00 AM 42.8 °F 38.6 °F 37.4 °F 81% 30.09 in - North 6.9 mph - N/A   Clear
7:30 AM 41.0 °F 38.0 °F 37.4 °F 87% 30.12 in 6.2 mi North 4.6 mph - N/A   Partly Cloudy
8:00 AM 42 °F - 36 °F 73% 30.18 in 19 mi North 6.9 mph - -   Scattered Clouds
8:00 AM 42.8 °F 39.3 °F 39.2 °F 87% 30.12 in 6.2 mi North 5.8 mph - N/A   Partly Cloudy
8:30 AM 44.6 °F 42.2 °F 39.2 °F 81% 30.12 in 6.2 mi NNW 4.6 mph - N/A   Partly Cloudy
9:00 AM 46.4 °F 45.2 °F 39.2 °F 76% 30.12 in - North 3.5 mph - N/A   Clear
9:30 AM 50.0 °F - 39.2 °F 66% 30.12 in - NE 6.9 mph - N/A   Clear
10:00 AM 51.8 °F - 41.0 °F 67% 30.12 in - ENE 6.9 mph - N/A   Clear
10:30 AM 53.6 °F - 41.0 °F 62% 30.12 in - NE 5.8 mph - N/A   Clear
11:00 AM 55.4 °F - 39.2 °F 54% 30.12 in - NE 5.8 mph - N/A   Clear
11:30 AM 57.2 °F - 41.0 °F 55% 30.12 in 6.2 mi NE 6.9 mph - N/A   Partly Cloudy
12:00 PM 59.0 °F - 42.8 °F 55% 30.12 in 6.2 mi NNE 5.8 mph - N/A   Partly Cloudy
12:30 PM 59.0 °F - 41.0 °F 51% 30.12 in 6.2 mi NNE 4.6 mph - N/A   Partly Cloudy
1:00 PM 60.8 °F - 42.8 °F 52% 30.12 in 6.2 mi North 5.8 mph - N/A   Partly Cloudy
1:30 PM 60.8 °F - 39.2 °F 45% 30.12 in 6.2 mi NNE 5.8 mph - N/A   Partly Cloudy
2:00 PM 62 °F - 37 °F 28% 30.06 in 19 mi North 4.6 mph - -   Scattered Clouds
2:00 PM 60.8 °F - 39.2 °F 45% 30.09 in 6.2 mi North 5.8 mph - N/A   Partly Cloudy
2:30 PM 62.6 °F - 39.2 °F 42% 30.09 in 6.2 mi Variable 5.8 mph - N/A   Partly Cloudy
3:00 PM 64.4 °F - 41.0 °F 42% 30.09 in 6.2 mi NNE 4.6 mph - N/A   Partly Cloudy
3:30 PM 64.4 °F - 41.0 °F 42% 30.09 in 6.2 mi NNW 5.8 mph - N/A   Partly Cloudy
4:00 PM 64.4 °F - 42.8 °F 45% 30.06 in 6.2 mi NNW 5.8 mph - N/A   Scattered Clouds
4:30 PM 64.4 °F - 39.2 °F 40% 30.06 in 6.2 mi North 4.6 mph - N/A   Scattered Clouds
5:00 PM 66.2 °F - 41.0 °F 40% 30.04 in 6.2 mi ESE 3.5 mph - N/A   Scattered Clouds
5:30 PM 66.2 °F - 37.4 °F 35% 30.04 in 6.2 mi North 3.5 mph - N/A   Scattered Clouds
6:00 PM 68.0 °F - 41.0 °F 37% 30.04 in 6.2 mi NNE 3.5 mph - N/A   Partly Cloudy
6:30 PM 66.2 °F - 39.2 °F 37% 30.04 in 6.2 mi NNE 4.6 mph - N/A   Partly Cloudy
7:00 PM 66.2 °F - 39.2 °F 37% 30.04 in 6.2 mi Variable 2.3 mph - N/A   Partly Cloudy
7:30 PM 66.2 °F - 39.2 °F 37% 30.04 in - North 3.5 mph - N/A   Clear
8:00 PM 64.4 °F - 37.4 °F 37% 30.04 in - NNE 3.5 mph - N/A   Clear
8:30 PM 62.6 °F - 41.0 °F 45% 30.04 in - ENE 3.5 mph - N/A   Clear
9:00 PM 62.6 °F - 41.0 °F 45% 30.04 in - NE 3.5 mph - N/A   Clear
9:30 PM 60.8 °F - 41.0 °F 48% 30.04 in 6.2 mi ENE 3.5 mph - N/A   Scattered Clouds
10:00 PM 59.0 °F - 41.0 °F 51% 30.06 in 6.2 mi ENE 3.5 mph - N/A   Mostly Cloudy
10:30 PM 59.0 °F - 39.2 °F 48% 30.06 in 6.2 mi ENE 3.5 mph - N/A   Mostly Cloudy
11:00 PM 59.0 °F - 41.0 °F 51% 30.09 in 6.2 mi NNW 6.9 mph - N/A   Mostly Cloudy
11:30 PM 57.2 °F - 41.0 °F 55% 30.09 in 6.2 mi NNW 5.8 mph - N/A   Mostly Cloudy